CPA711 VHHH-WSSS

Flight info

Callsign CPA711
Flight time 3h 12m
Altitude 38000
Route PECAN V12 EPDOS L642 EPKAL/K0893F390 L642 ESPOB/N0480F400 Q801 ESBUM/N0480F390 Q802 ELALO ELALO1B
Aircraft B77W/H-SDE1E2E3FGHIJ2J3J4J5M1RWXY/LB1D1

Departure

Time 2026-05-06 09:17
Airport Hong Kong International Airport (VHHH)

Arrival

Time 2026-05-06 12:29
Airport Singapore Changi Airport (WSSS)
Time Latitude Longitude Altitude Speed Heading
2026-05-06 08:54 22.31477 113.92556 42 ft 0 kts 206°
2026-05-06 09:04 22.31478 113.92557 42 ft 1 kts 206°
2026-05-06 09:04 22.31493 113.92564 40 ft 3 kts 206°
2026-05-06 09:05 22.31511 113.92574 41 ft 3 kts 206°
2026-05-06 09:05 22.31529 113.92583 39 ft 2 kts 206°
2026-05-06 09:05 22.31543 113.92590 40 ft 3 kts 217°
2026-05-06 09:05 22.31555 113.92602 38 ft 3 kts 243°
2026-05-06 09:06 22.31559 113.92613 40 ft 3 kts 277°
2026-05-06 09:06 22.31554 113.92629 36 ft 3 kts 300°
2026-05-06 09:06 22.31544 113.92648 39 ft 2 kts 297°
2026-05-06 09:06 22.31541 113.92654 40 ft 0 kts 296°
2026-05-06 09:08 22.31544 113.92648 42 ft 5 kts 296°
2026-05-06 09:08 22.31582 113.92562 42 ft 18 kts 295°
2026-05-06 09:08 22.31644 113.92452 42 ft 17 kts 317°
2026-05-06 09:08 22.31750 113.92438 42 ft 16 kts 33°
2026-05-06 09:09 22.31798 113.92546 42 ft 16 kts 71°
2026-05-06 09:09 22.31836 113.92660 42 ft 16 kts 70°
2026-05-06 09:09 22.31875 113.92779 42 ft 18 kts 70°
2026-05-06 09:09 22.31915 113.92905 42 ft 18 kts 70°
2026-05-06 09:10 22.31957 113.93025 42 ft 15 kts 70°
2026-05-06 09:10 22.31936 113.93098 42 ft 10 kts 163°
2026-05-06 09:10 22.31878 113.93079 42 ft 10 kts 245°
2026-05-06 09:10 22.31851 113.93002 42 ft 13 kts 250°
2026-05-06 09:11 22.31814 113.92889 42 ft 19 kts 250°
2026-05-06 09:11 22.31766 113.92739 42 ft 24 kts 251°
2026-05-06 09:11 22.31710 113.92564 42 ft 25 kts 250°
2026-05-06 09:11 22.31650 113.92383 42 ft 26 kts 251°
2026-05-06 09:12 22.31592 113.92201 41 ft 26 kts 251°
2026-05-06 09:12 22.31535 113.92022 42 ft 26 kts 251°
2026-05-06 09:12 22.31475 113.91838 42 ft 26 kts 251°
2026-05-06 09:12 22.31417 113.91657 42 ft 26 kts 251°
2026-05-06 09:13 22.31359 113.91476 42 ft 26 kts 252°
2026-05-06 09:13 22.31300 113.91295 42 ft 26 kts 250°
2026-05-06 09:13 22.31242 113.91116 42 ft 26 kts 250°
2026-05-06 09:13 22.31182 113.90932 42 ft 26 kts 251°
2026-05-06 09:14 22.31125 113.90751 42 ft 26 kts 251°
2026-05-06 09:14 22.31065 113.90570 42 ft 26 kts 251°
2026-05-06 09:14 22.31007 113.90389 42 ft 26 kts 251°
2026-05-06 09:14 22.30949 113.90207 42 ft 26 kts 250°
2026-05-06 09:15 22.30888 113.90029 41 ft 26 kts 250°
2026-05-06 09:15 22.30841 113.89865 42 ft 16 kts 266°
2026-05-06 09:15 22.30895 113.89810 42 ft 11 kts 340°
2026-05-06 09:15 22.30974 113.89780 42 ft 13 kts 341°
2026-05-06 09:16 22.31064 113.89765 41 ft 14 kts 21°
2026-05-06 09:16 22.31127 113.89892 42 ft 35 kts 69°
2026-05-06 09:16 22.31301 113.90442 39 ft 119 kts 70°
2026-05-06 09:16 22.31648 113.91512 190 ft 169 kts 71°
2026-05-06 09:17 22.32025 113.92659 1167 ft 159 kts 74°
2026-05-06 09:17 22.32403 113.93827 1882 ft 172 kts 73°
2026-05-06 09:17 22.32828 113.95150 2206 ft 202 kts 74°
2026-05-06 09:17 22.33300 113.96625 2785 ft 214 kts 71°
2026-05-06 09:18 22.34040 113.98075 3317 ft 229 kts 57°
2026-05-06 09:18 22.34962 113.99486 4058 ft 234 kts 55°
2026-05-06 09:18 22.35914 114.00940 4797 ft 237 kts 55°
2026-05-06 09:18 22.36864 114.02415 5545 ft 241 kts 55°
2026-05-06 09:19 22.37818 114.03915 6306 ft 245 kts 55°
2026-05-06 09:19 22.38787 114.05451 7040 ft 248 kts 55°
2026-05-06 09:19 22.39736 114.07002 7772 ft 249 kts 63°
2026-05-06 09:19 22.40119 114.08839 8215 ft 261 kts 98°
2026-05-06 09:20 22.39575 114.10774 8452 ft 281 kts 116°
2026-05-06 09:20 22.38743 114.12758 8938 ft 297 kts 116°
2026-05-06 09:20 22.37875 114.14826 9681 ft 306 kts 116°
2026-05-06 09:20 22.36996 114.16942 10383 ft 315 kts 116°
2026-05-06 09:21 22.36072 114.19193 10655 ft 342 kts 115°
2026-05-06 09:21 22.35077 114.21644 10875 ft 371 kts 115°
2026-05-06 09:21 22.34014 114.24270 11277 ft 387 kts 116°
2026-05-06 09:21 22.32550 114.26721 11769 ft 395 kts 136°
2026-05-06 09:22 22.30339 114.28470 12640 ft 394 kts 155°
2026-05-06 09:22 22.27829 114.29675 13454 ft 399 kts 159°
2026-05-06 09:22 22.25253 114.30881 14216 ft 407 kts 158°
2026-05-06 09:22 22.22720 114.32256 15056 ft 410 kts 150°
2026-05-06 09:23 22.20384 114.34052 15922 ft 414 kts 143°
2026-05-06 09:23 22.18124 114.35998 16789 ft 418 kts 143°
2026-05-06 09:23 22.15817 114.37929 17596 ft 422 kts 144°
2026-05-06 09:23 22.13450 114.39827 18363 ft 425 kts 146°
2026-05-06 09:24 22.10902 114.41414 18851 ft 426 kts 162°
2026-05-06 09:24 22.07990 114.41993 19431 ft 428 kts 182°
2026-05-06 09:24 22.05053 114.41588 20129 ft 426 kts 197°
2026-05-06 09:24 22.02325 114.40375 20827 ft 425 kts 213°
2026-05-06 09:25 21.99892 114.38557 21500 ft 428 kts 218°
2026-05-06 09:25 21.97455 114.36683 22119 ft 433 kts 217°
2026-05-06 09:25 21.94975 114.34809 22775 ft 437 kts 218°
2026-05-06 09:25 21.92577 114.32844 23409 ft 440 kts 220°
2026-05-06 09:26 21.90178 114.30770 23960 ft 444 kts 221°
2026-05-06 09:26 21.87776 114.28667 24497 ft 447 kts 221°
2026-05-06 09:26 21.85351 114.26554 25041 ft 450 kts 221°
2026-05-06 09:26 21.82895 114.24436 25542 ft 454 kts 221°
2026-05-06 09:27 21.80413 114.22313 26060 ft 457 kts 220°
2026-05-06 09:27 21.77907 114.20180 26560 ft 461 kts 220°
2026-05-06 09:27 21.75380 114.18034 27057 ft 465 kts 220°
2026-05-06 09:27 21.72834 114.15872 27552 ft 468 kts 220°
2026-05-06 09:28 21.70268 114.13693 28042 ft 471 kts 220°
2026-05-06 09:28 21.67686 114.11501 28508 ft 475 kts 220°
2026-05-06 09:28 21.65026 114.09380 28904 ft 480 kts 214°
2026-05-06 09:28 21.61954 114.07922 29221 ft 488 kts 197°
2026-05-06 09:29 21.58618 114.07124 29570 ft 493 kts 194°
2026-05-06 09:29 21.55246 114.06367 29943 ft 497 kts 195°
2026-05-06 09:29 21.51870 114.05562 30288 ft 499 kts 195°
2026-05-06 09:29 21.48532 114.04715 30668 ft 499 kts 196°
2026-05-06 09:30 21.45120 114.03826 31132 ft 498 kts 196°
2026-05-06 09:30 21.41719 114.03111 31572 ft 499 kts 189°
2026-05-06 09:30 21.38293 114.02792 31973 ft 502 kts 186°
2026-05-06 09:30 21.34807 114.02630 32402 ft 502 kts 185°
2026-05-06 09:31 21.31315 114.02506 32845 ft 502 kts 185°
2026-05-06 09:31 21.27827 114.02359 33283 ft 501 kts 185°
2026-05-06 09:31 21.24347 114.02173 33728 ft 501 kts 186°
2026-05-06 09:31 21.20868 114.01954 34139 ft 500 kts 186°
2026-05-06 09:32 21.17396 114.01717 34521 ft 499 kts 186°
2026-05-06 09:32 21.13934 114.01475 34928 ft 498 kts 186°
2026-05-06 09:32 21.10479 114.01234 35313 ft 497 kts 186°
2026-05-06 09:32 21.07028 114.00996 35675 ft 497 kts 186°
2026-05-06 09:33 21.03579 114.00761 36049 ft 496 kts 186°
2026-05-06 09:33 21.00135 114.00529 36428 ft 495 kts 186°
2026-05-06 09:33 20.96697 114.00296 36797 ft 495 kts 186°
2026-05-06 09:33 20.93277 113.99966 37142 ft 493 kts 190°
2026-05-06 09:34 20.89916 113.99311 37477 ft 490 kts 195°
2026-05-06 09:34 20.86589 113.98530 37800 ft 490 kts 195°
2026-05-06 09:34 20.83247 113.97721 37869 ft 494 kts 195°
2026-05-06 09:35 20.76530 113.96099 37899 ft 494 kts 195°
2026-05-06 09:35 20.69915 113.94545 37889 ft 487 kts 195°
2026-05-06 09:36 20.63302 113.93031 37900 ft 486 kts 195°
2026-05-06 09:36 20.56711 113.91488 37904 ft 485 kts 195°
2026-05-06 09:37 20.50102 113.89947 37896 ft 486 kts 195°
2026-05-06 09:37 20.43478 113.88411 37905 ft 487 kts 195°
2026-05-06 09:38 20.36840 113.86876 37901 ft 489 kts 195°
2026-05-06 09:38 20.30192 113.85339 37901 ft 489 kts 195°
2026-05-06 09:39 20.23528 113.83800 37903 ft 490 kts 195°
2026-05-06 09:39 20.16859 113.82261 37894 ft 491 kts 195°
2026-05-06 09:40 20.10189 113.80723 37897 ft 491 kts 195°
2026-05-06 09:40 20.00181 113.78418 37897 ft 490 kts 195°
2026-05-06 09:41 19.93522 113.76885 37898 ft 490 kts 195°
2026-05-06 09:41 19.86863 113.75354 37894 ft 489 kts 195°
2026-05-06 09:42 19.80213 113.73827 37894 ft 489 kts 195°
2026-05-06 09:42 19.73613 113.72312 37894 ft 488 kts 195°
2026-05-06 09:43 19.66972 113.70789 37890 ft 488 kts 195°
2026-05-06 09:43 19.60332 113.69268 37894 ft 488 kts 195°
2026-05-06 09:44 19.53700 113.67749 37890 ft 488 kts 195°
2026-05-06 09:44 19.47065 113.66232 37895 ft 487 kts 195°
2026-05-06 09:45 19.40435 113.64716 37895 ft 487 kts 195°
2026-05-06 09:45 19.34936 113.63460 37891 ft 487 kts 195°
2026-05-06 09:46 19.28308 113.61948 37890 ft 487 kts 195°
2026-05-06 09:46 19.21679 113.60436 37884 ft 487 kts 195°
2026-05-06 09:47 19.15057 113.58927 37887 ft 487 kts 195°
2026-05-06 09:47 19.08436 113.57420 37888 ft 487 kts 195°
2026-05-06 09:48 19.01815 113.55913 37888 ft 487 kts 195°
2026-05-06 09:48 18.95125 113.54733 37893 ft 488 kts 190°
2026-05-06 09:49 18.88382 113.53816 37886 ft 488 kts 190°
2026-05-06 09:49 18.81646 113.52888 37887 ft 488 kts 190°
2026-05-06 09:50 18.74910 113.51932 37886 ft 488 kts 190°
2026-05-06 09:50 18.68176 113.50971 37883 ft 488 kts 190°
2026-05-06 09:51 18.61445 113.50015 37879 ft 488 kts 191°
2026-05-06 09:51 18.54991 113.48060 37885 ft 481 kts 207°
2026-05-06 09:52 18.49342 113.44484 37888 ft 475 kts 219°
2026-05-06 09:52 18.44044 113.40314 37880 ft 476 kts 219°
2026-05-06 09:53 18.38732 113.36138 37885 ft 477 kts 219°
2026-05-06 09:53 18.33389 113.32000 37882 ft 477 kts 219°
2026-05-06 09:54 18.28026 113.27876 37882 ft 478 kts 219°
2026-05-06 09:54 18.22656 113.23752 37877 ft 478 kts 219°
2026-05-06 09:55 18.17285 113.19627 37878 ft 478 kts 219°
2026-05-06 09:55 18.11913 113.15504 37878 ft 478 kts 219°
2026-05-06 09:56 18.06538 113.11381 37878 ft 478 kts 218°
2026-05-06 09:56 18.01159 113.07258 37875 ft 478 kts 218°
2026-05-06 09:57 17.95780 113.03138 37876 ft 479 kts 218°
2026-05-06 09:57 17.90400 112.99020 37880 ft 479 kts 218°
2026-05-06 09:58 17.85017 112.94901 37879 ft 479 kts 219°
2026-05-06 09:58 17.79682 112.90725 37877 ft 479 kts 219°
2026-05-06 09:59 17.74366 112.86519 37876 ft 479 kts 219°
2026-05-06 09:59 17.69041 112.82318 37873 ft 479 kts 219°
2026-05-06 10:00 17.63706 112.78123 37877 ft 479 kts 219°
2026-05-06 10:00 17.58372 112.73936 37879 ft 479 kts 219°
2026-05-06 10:01 17.53071 112.69777 37873 ft 479 kts 219°
2026-05-06 10:01 17.47733 112.65592 37878 ft 479 kts 219°
2026-05-06 10:02 17.42358 112.61381 37877 ft 479 kts 219°
2026-05-06 10:02 17.37055 112.57230 37887 ft 479 kts 219°
2026-05-06 10:03 17.31715 112.53052 37869 ft 479 kts 219°
2026-05-06 10:03 17.26379 112.48881 37869 ft 479 kts 219°
2026-05-06 10:04 17.21043 112.44712 37860 ft 479 kts 219°
2026-05-06 10:04 17.15709 112.40549 37881 ft 478 kts 219°
2026-05-06 10:05 17.10381 112.36392 37886 ft 478 kts 219°
2026-05-06 10:05 17.05053 112.32238 37860 ft 478 kts 219°
2026-05-06 10:06 16.99728 112.28091 37867 ft 477 kts 219°
2026-05-06 10:06 16.94364 112.23995 37877 ft 477 kts 218°
2026-05-06 10:07 16.88981 112.19935 37874 ft 477 kts 218°
2026-05-06 10:07 16.83598 112.15871 37875 ft 477 kts 218°
2026-05-06 10:08 16.78224 112.11807 37875 ft 477 kts 218°
2026-05-06 10:08 16.72847 112.07738 37863 ft 477 kts 218°
2026-05-06 10:09 16.67473 112.03675 37883 ft 477 kts 218°
2026-05-06 10:09 16.62096 111.99613 37872 ft 477 kts 218°
2026-05-06 10:10 16.56720 111.95555 37875 ft 477 kts 218°
2026-05-06 10:10 16.51380 111.91526 37878 ft 477 kts 218°
2026-05-06 10:11 16.46004 111.87474 37875 ft 477 kts 218°
2026-05-06 10:11 16.40633 111.83428 37869 ft 477 kts 218°
2026-05-06 10:12 16.35261 111.79384 37873 ft 476 kts 218°
2026-05-06 10:12 16.29883 111.75338 37872 ft 476 kts 218°
2026-05-06 10:13 16.24511 111.71300 37871 ft 476 kts 218°
2026-05-06 10:13 16.19139 111.67264 37873 ft 476 kts 218°
2026-05-06 10:14 16.13768 111.63233 37871 ft 476 kts 218°
2026-05-06 10:14 16.08397 111.59203 37869 ft 476 kts 218°
2026-05-06 10:15 16.03019 111.55171 37872 ft 476 kts 218°
2026-05-06 10:15 15.97642 111.51143 37874 ft 476 kts 218°
2026-05-06 10:16 15.92264 111.47117 37868 ft 477 kts 218°
2026-05-06 10:16 15.86884 111.43092 37870 ft 477 kts 218°
2026-05-06 10:17 15.81496 111.39063 37872 ft 477 kts 218°
2026-05-06 10:17 15.76109 111.35038 37869 ft 477 kts 218°
2026-05-06 10:18 15.70721 111.31015 37872 ft 477 kts 218°
2026-05-06 10:18 15.65330 111.26992 37872 ft 477 kts 218°
2026-05-06 10:19 15.59938 111.22972 37867 ft 477 kts 218°
2026-05-06 10:19 15.54544 111.18952 37868 ft 477 kts 218°
2026-05-06 10:20 15.49151 111.14936 37866 ft 477 kts 218°
2026-05-06 10:20 15.43761 111.10923 37864 ft 477 kts 218°
2026-05-06 10:21 15.38368 111.06911 37869 ft 477 kts 218°
2026-05-06 10:21 15.33022 111.02917 37869 ft 477 kts 219°
2026-05-06 10:22 15.27644 110.98826 37870 ft 476 kts 219°
2026-05-06 10:22 15.22345 110.94783 37868 ft 476 kts 219°
2026-05-06 10:23 15.17011 110.90724 37873 ft 476 kts 219°
2026-05-06 10:23 15.11676 110.86673 37869 ft 476 kts 219°
2026-05-06 10:24 15.06338 110.82625 37870 ft 475 kts 219°
2026-05-06 10:24 15.01005 110.78582 37868 ft 475 kts 219°
2026-05-06 10:25 14.95672 110.74541 37868 ft 475 kts 219°
2026-05-06 10:25 14.90337 110.70502 37870 ft 475 kts 219°
2026-05-06 10:26 14.85001 110.66464 37869 ft 475 kts 219°
2026-05-06 10:26 14.79663 110.62427 37867 ft 475 kts 219°
2026-05-06 10:27 14.74322 110.58391 37867 ft 476 kts 219°
2026-05-06 10:27 14.68976 110.54353 37867 ft 476 kts 219°
2026-05-06 10:28 14.63630 110.50318 37868 ft 476 kts 219°
2026-05-06 10:28 14.58278 110.46281 37868 ft 477 kts 218°
2026-05-06 10:29 14.52922 110.42243 37867 ft 477 kts 218°
2026-05-06 10:29 14.47561 110.38204 37862 ft 477 kts 218°
2026-05-06 10:30 14.42194 110.34163 37868 ft 478 kts 218°
2026-05-06 10:30 14.36819 110.30118 37867 ft 478 kts 218°
2026-05-06 10:31 14.32353 110.26759 37868 ft 478 kts 218°
2026-05-06 10:31 14.26973 110.22715 37865 ft 479 kts 218°
2026-05-06 10:32 14.21588 110.18669 37868 ft 479 kts 218°
2026-05-06 10:32 14.16201 110.14625 37867 ft 479 kts 218°
2026-05-06 10:33 14.10812 110.10581 37869 ft 479 kts 218°
2026-05-06 10:33 14.05424 110.06540 37868 ft 479 kts 218°
2026-05-06 10:34 14.00039 110.02503 37868 ft 478 kts 218°
2026-05-06 10:34 13.94592 109.98579 37870 ft 478 kts 214°
2026-05-06 10:35 13.88959 109.94952 37867 ft 478 kts 213°
2026-05-06 10:35 13.83303 109.91364 37867 ft 477 kts 213°
2026-05-06 10:36 13.77662 109.87762 37867 ft 477 kts 213°
2026-05-06 10:36 13.72030 109.84147 37865 ft 477 kts 213°
2026-05-06 10:37 13.66398 109.80529 37866 ft 478 kts 213°
2026-05-06 10:37 13.60759 109.76909 37867 ft 478 kts 213°
2026-05-06 10:38 13.55116 109.73289 37867 ft 478 kts 213°
2026-05-06 10:38 13.49467 109.69669 37866 ft 479 kts 213°
2026-05-06 10:39 13.43810 109.66045 37866 ft 479 kts 213°
2026-05-06 10:39 13.38148 109.62420 37868 ft 480 kts 213°
2026-05-06 10:40 13.32522 109.58820 37867 ft 480 kts 213°
2026-05-06 10:40 13.26845 109.55190 37864 ft 481 kts 213°
2026-05-06 10:41 13.21171 109.51563 37865 ft 481 kts 213°
2026-05-06 10:41 13.15485 109.47931 37866 ft 481 kts 213°
2026-05-06 10:42 13.09803 109.44304 37869 ft 481 kts 213°
2026-05-06 10:42 13.04120 109.40677 37870 ft 481 kts 213°
2026-05-06 10:43 12.98436 109.37052 37874 ft 481 kts 213°
2026-05-06 10:44 12.89917 109.31622 37870 ft 481 kts 213°
2026-05-06 10:44 12.84230 109.28000 37878 ft 481 kts 213°
2026-05-06 10:45 12.78546 109.24382 37872 ft 481 kts 213°
2026-05-06 10:45 12.72859 109.20763 37877 ft 481 kts 213°
2026-05-06 10:46 12.67170 109.17145 37880 ft 482 kts 213°
2026-05-06 10:46 12.61471 109.13524 37882 ft 482 kts 213°
2026-05-06 10:47 12.55765 109.09902 37883 ft 483 kts 213°
2026-05-06 10:47 12.50050 109.06275 37886 ft 483 kts 213°
2026-05-06 10:48 12.44332 109.02648 37892 ft 484 kts 213°
2026-05-06 10:48 12.38612 108.99020 37899 ft 484 kts 213°
2026-05-06 10:49 12.32888 108.95392 37895 ft 484 kts 213°
2026-05-06 10:49 12.27200 108.91789 37906 ft 484 kts 213°
2026-05-06 10:50 12.21437 108.88141 37910 ft 484 kts 212°
2026-05-06 10:50 12.15713 108.84518 37916 ft 484 kts 212°
2026-05-06 10:51 12.09988 108.80897 37918 ft 484 kts 212°
2026-05-06 10:51 12.04307 108.77305 37922 ft 483 kts 212°
2026-05-06 10:52 11.98589 108.73692 37931 ft 483 kts 212°
2026-05-06 10:52 11.92873 108.70081 37926 ft 483 kts 212°
2026-05-06 10:53 11.87160 108.66475 37918 ft 483 kts 212°
2026-05-06 10:53 11.81451 108.62873 37922 ft 483 kts 212°
2026-05-06 10:54 11.75731 108.59270 37924 ft 483 kts 212°
2026-05-06 10:54 11.70017 108.55673 37913 ft 483 kts 212°
2026-05-06 10:55 11.64292 108.52069 37907 ft 483 kts 212°
2026-05-06 10:55 11.58571 108.48469 37901 ft 483 kts 212°
2026-05-06 10:56 11.52840 108.44865 37900 ft 484 kts 212°
2026-05-06 10:56 11.47110 108.41262 37888 ft 484 kts 212°
2026-05-06 10:57 11.41371 108.37656 37890 ft 484 kts 212°
2026-05-06 10:57 11.35634 108.34053 37881 ft 485 kts 212°
2026-05-06 10:58 11.29898 108.30452 37879 ft 485 kts 212°
2026-05-06 10:58 11.24194 108.26873 37869 ft 484 kts 212°
2026-05-06 10:59 11.18456 108.23274 37867 ft 484 kts 212°
2026-05-06 10:59 11.12723 108.19680 37865 ft 484 kts 211°
2026-05-06 11:00 11.06983 108.16083 37865 ft 484 kts 211°
2026-05-06 11:00 11.01246 108.12489 37861 ft 484 kts 211°
2026-05-06 11:01 10.95518 108.08903 37856 ft 484 kts 211°
2026-05-06 11:01 10.89809 108.05280 37854 ft 483 kts 213°
2026-05-06 11:02 10.84180 108.01530 37847 ft 483 kts 213°
2026-05-06 11:02 10.78570 107.97774 37848 ft 483 kts 213°
2026-05-06 11:03 10.72948 107.94036 37850 ft 483 kts 213°
2026-05-06 11:03 10.67314 107.90304 37848 ft 483 kts 213°
2026-05-06 11:04 10.61679 107.86575 37849 ft 483 kts 213°
2026-05-06 11:04 10.56044 107.82844 37843 ft 483 kts 213°
2026-05-06 11:05 10.50412 107.79117 37849 ft 483 kts 213°
2026-05-06 11:05 10.44783 107.75393 37849 ft 483 kts 213°
2026-05-06 11:06 10.39156 107.71666 37844 ft 482 kts 213°
2026-05-06 11:06 10.33538 107.67941 37840 ft 482 kts 213°
2026-05-06 11:07 10.27925 107.64221 37844 ft 482 kts 213°
2026-05-06 11:07 10.22308 107.60500 37846 ft 482 kts 213°
2026-05-06 11:08 10.16735 107.56810 37846 ft 482 kts 213°
2026-05-06 11:08 10.11121 107.53098 37846 ft 481 kts 213°
2026-05-06 11:09 10.05504 107.49394 37847 ft 481 kts 213°
2026-05-06 11:09 9.99892 107.45696 37849 ft 481 kts 213°
2026-05-06 11:10 9.94281 107.41999 37848 ft 481 kts 213°
2026-05-06 11:10 9.88672 107.38303 37852 ft 481 kts 213°
2026-05-06 11:11 9.83056 107.34603 37852 ft 481 kts 213°
2026-05-06 11:11 9.77449 107.30912 37851 ft 481 kts 213°
2026-05-06 11:12 9.71834 107.27216 37854 ft 481 kts 213°
2026-05-06 11:12 9.66213 107.23519 37850 ft 481 kts 213°
2026-05-06 11:13 9.60599 107.19827 37849 ft 481 kts 213°
2026-05-06 11:13 9.54974 107.16129 37848 ft 482 kts 213°
2026-05-06 11:14 9.49350 107.12434 37849 ft 482 kts 213°
2026-05-06 11:14 9.43721 107.08737 37849 ft 483 kts 213°
2026-05-06 11:15 9.38087 107.05038 37850 ft 483 kts 212°
2026-05-06 11:15 9.32446 107.01336 37849 ft 483 kts 212°
2026-05-06 11:16 9.26842 106.97659 37849 ft 484 kts 212°
2026-05-06 11:16 9.21193 106.93955 37853 ft 484 kts 212°
2026-05-06 11:17 9.15548 106.90254 37849 ft 483 kts 212°
2026-05-06 11:17 9.09911 106.86561 37849 ft 483 kts 212°
2026-05-06 11:18 9.04279 106.82872 37847 ft 482 kts 212°
2026-05-06 11:18 8.98655 106.79190 37845 ft 481 kts 212°
2026-05-06 11:19 8.93041 106.75515 37845 ft 481 kts 212°
2026-05-06 11:19 8.87428 106.71842 37843 ft 480 kts 212°
2026-05-06 11:20 8.81813 106.68168 37838 ft 481 kts 212°
2026-05-06 11:20 8.77143 106.65114 37841 ft 481 kts 212°
2026-05-06 11:21 8.70583 106.60863 37850 ft 483 kts 211°
2026-05-06 11:21 8.64845 106.57306 37842 ft 485 kts 210°
2026-05-06 11:22 8.60008 106.54334 37844 ft 486 kts 211°
2026-05-06 11:22 8.54230 106.50767 37846 ft 488 kts 211°
2026-05-06 11:23 8.48433 106.47175 37842 ft 489 kts 211°
2026-05-06 11:23 8.42626 106.43571 37845 ft 490 kts 211°
2026-05-06 11:24 8.36808 106.39963 37845 ft 491 kts 211°
2026-05-06 11:24 8.31033 106.36384 37844 ft 490 kts 211°
2026-05-06 11:25 8.25221 106.32784 37844 ft 490 kts 211°
2026-05-06 11:25 8.19376 106.29165 37844 ft 489 kts 210°
2026-05-06 11:26 8.13621 106.25603 37841 ft 489 kts 210°
2026-05-06 11:26 8.07826 106.22017 37840 ft 488 kts 210°
2026-05-06 11:27 8.02036 106.18435 37839 ft 488 kts 210°
2026-05-06 11:27 7.96245 106.14854 37842 ft 488 kts 210°
2026-05-06 11:28 7.90455 106.11274 37842 ft 488 kts 210°
2026-05-06 11:28 7.84662 106.07694 37843 ft 488 kts 210°
2026-05-06 11:29 7.78862 106.04111 37841 ft 489 kts 210°
2026-05-06 11:29 7.73062 106.00530 37840 ft 489 kts 211°
2026-05-06 11:30 7.67254 105.96944 37841 ft 490 kts 211°
2026-05-06 11:30 7.61437 105.93354 37838 ft 490 kts 211°
2026-05-06 11:31 7.55625 105.89768 37837 ft 490 kts 211°
2026-05-06 11:31 7.49803 105.86176 37840 ft 490 kts 211°
2026-05-06 11:32 7.43984 105.82588 37838 ft 491 kts 211°
2026-05-06 11:32 7.38155 105.78996 37838 ft 491 kts 211°
2026-05-06 11:33 7.32329 105.75405 37834 ft 491 kts 211°
2026-05-06 11:33 7.26539 105.71839 37830 ft 491 kts 211°
2026-05-06 11:34 7.20708 105.68248 37830 ft 491 kts 211°
2026-05-06 11:34 7.14874 105.64656 37828 ft 491 kts 210°
2026-05-06 11:35 7.09047 105.61068 37832 ft 491 kts 210°
2026-05-06 11:35 7.03216 105.57480 37831 ft 491 kts 210°
2026-05-06 11:36 6.97310 105.54054 37831 ft 490 kts 206°
2026-05-06 11:36 6.91226 105.50967 37828 ft 489 kts 205°
2026-05-06 11:37 6.85131 105.47916 37831 ft 489 kts 205°
2026-05-06 11:37 6.79048 105.44844 37828 ft 489 kts 205°
2026-05-06 11:38 6.72978 105.41760 37826 ft 489 kts 206°
2026-05-06 11:38 6.66907 105.38671 37825 ft 489 kts 206°
2026-05-06 11:39 6.60844 105.35588 37826 ft 488 kts 206°
2026-05-06 11:39 6.54777 105.32504 37824 ft 489 kts 205°
2026-05-06 11:40 6.48708 105.29421 37824 ft 489 kts 205°
2026-05-06 11:40 6.42636 105.26338 37828 ft 489 kts 205°
2026-05-06 11:41 6.36562 105.23254 37826 ft 489 kts 205°
2026-05-06 11:41 6.30487 105.20170 37822 ft 489 kts 205°
2026-05-06 11:42 6.24414 105.17088 37826 ft 489 kts 205°
2026-05-06 11:42 6.18333 105.14003 37827 ft 489 kts 205°
2026-05-06 11:43 6.12294 105.10941 37824 ft 489 kts 205°
2026-05-06 11:43 6.06213 105.07857 37824 ft 490 kts 205°
2026-05-06 11:44 5.97093 105.03234 37826 ft 490 kts 205°
2026-05-06 11:44 5.91005 105.00149 37824 ft 490 kts 205°
2026-05-06 11:45 5.84922 104.97067 37827 ft 490 kts 205°
2026-05-06 11:45 5.78836 104.93984 37823 ft 490 kts 205°
2026-05-06 11:46 5.72751 104.90903 37826 ft 490 kts 205°
2026-05-06 11:46 5.66658 104.87818 37825 ft 490 kts 205°
2026-05-06 11:47 5.60568 104.84736 37826 ft 490 kts 205°
2026-05-06 11:47 5.54483 104.81657 37827 ft 490 kts 205°
2026-05-06 11:48 5.48391 104.78575 37828 ft 490 kts 205°
2026-05-06 11:48 5.42303 104.75495 37828 ft 490 kts 205°
2026-05-06 11:49 5.36216 104.72417 37827 ft 490 kts 205°
2026-05-06 11:49 5.30133 104.69342 37828 ft 490 kts 205°
2026-05-06 11:50 5.24049 104.66267 37827 ft 490 kts 205°
2026-05-06 11:50 5.17964 104.63191 37826 ft 490 kts 205°
2026-05-06 11:51 5.11920 104.60137 37823 ft 490 kts 205°
2026-05-06 11:51 5.05832 104.57062 37825 ft 490 kts 205°
2026-05-06 11:52 4.99743 104.53986 37828 ft 490 kts 205°
2026-05-06 11:52 4.93648 104.50908 37825 ft 491 kts 205°
2026-05-06 11:53 4.87330 104.48455 37827 ft 486 kts 189°
2026-05-06 11:53 4.80638 104.48122 37823 ft 481 kts 172°
2026-05-06 11:54 4.74003 104.49016 37826 ft 481 kts 170°
2026-05-06 11:54 4.67361 104.49945 37829 ft 482 kts 171°
2026-05-06 11:55 4.60698 104.50814 37825 ft 483 kts 171°
2026-05-06 11:55 4.54023 104.51654 37827 ft 483 kts 171°
2026-05-06 11:56 4.47357 104.52490 37826 ft 483 kts 171°
2026-05-06 11:56 4.40683 104.53330 37828 ft 483 kts 171°
2026-05-06 11:57 4.34021 104.54171 37833 ft 482 kts 171°
2026-05-06 11:57 4.27360 104.55011 37827 ft 482 kts 171°
2026-05-06 11:58 4.20711 104.55848 37826 ft 482 kts 171°
2026-05-06 11:58 4.14037 104.56544 37827 ft 482 kts 173°
2026-05-06 11:59 4.07359 104.57163 37827 ft 482 kts 173°
2026-05-06 11:59 4.00683 104.57800 37828 ft 482 kts 172°
2026-05-06 12:00 3.94008 104.58454 37825 ft 482 kts 172°
2026-05-06 12:00 3.87376 104.59106 37827 ft 482 kts 172°
2026-05-06 12:01 3.80698 104.59761 37830 ft 482 kts 172°
2026-05-06 12:01 3.74019 104.60415 37833 ft 482 kts 172°
2026-05-06 12:02 3.67340 104.61071 37829 ft 482 kts 172°
2026-05-06 12:02 3.60657 104.61727 37833 ft 482 kts 172°
2026-05-06 12:03 3.53978 104.62383 37831 ft 483 kts 172°
2026-05-06 12:03 3.47294 104.63039 37829 ft 483 kts 172°
2026-05-06 12:04 3.40608 104.63695 37828 ft 483 kts 172°
2026-05-06 12:04 3.33918 104.64352 37587 ft 486 kts 173°
2026-05-06 12:05 3.30515 104.64687 36831 ft 493 kts 173°
2026-05-06 12:05 3.27114 104.65020 36101 ft 491 kts 173°
2026-05-06 12:05 3.23755 104.65349 35299 ft 492 kts 173°
2026-05-06 12:05 3.20292 104.65689 34480 ft 493 kts 174°
2026-05-06 12:06 3.16893 104.66022 33849 ft 490 kts 174°
2026-05-06 12:06 3.13514 104.66353 33162 ft 487 kts 174°
2026-05-06 12:06 3.10157 104.66682 32569 ft 482 kts 174°
2026-05-06 12:06 3.06880 104.66723 31968 ft 477 kts 187°
2026-05-06 12:07 3.03669 104.65820 31418 ft 474 kts 203°
2026-05-06 12:07 3.00863 104.64192 30881 ft 472 kts 217°
2026-05-06 12:07 2.98523 104.61923 30343 ft 466 kts 226°
2026-05-06 12:07 2.96359 104.59524 29772 ft 464 kts 226°
2026-05-06 12:08 2.94199 104.57136 29129 ft 461 kts 226°
2026-05-06 12:08 2.92045 104.54779 28571 ft 457 kts 226°
2026-05-06 12:08 2.89894 104.52449 28013 ft 454 kts 226°
2026-05-06 12:08 2.87751 104.50145 27464 ft 450 kts 225°
2026-05-06 12:09 2.85622 104.47867 26926 ft 447 kts 225°
2026-05-06 12:09 2.83501 104.45601 26389 ft 444 kts 225°
2026-05-06 12:09 2.81399 104.43357 25860 ft 441 kts 225°
2026-05-06 12:09 2.79302 104.41118 25313 ft 440 kts 225°
2026-05-06 12:10 2.77217 104.38893 24767 ft 438 kts 225°
2026-05-06 12:10 2.75840 104.37422 24429 ft 437 kts 225°
2026-05-06 12:10 2.73070 104.34463 23718 ft 435 kts 225°
2026-05-06 12:10 2.71005 104.32256 23145 ft 434 kts 225°
2026-05-06 12:11 2.68950 104.30061 22563 ft 431 kts 225°
2026-05-06 12:11 2.66907 104.27878 22034 ft 428 kts 225°
2026-05-06 12:11 2.64882 104.25715 21509 ft 425 kts 225°
2026-05-06 12:11 2.63549 104.24291 21147 ft 422 kts 225°
2026-05-06 12:12 2.61548 104.22153 20640 ft 420 kts 225°
2026-05-06 12:12 2.59557 104.20026 20125 ft 417 kts 225°
2026-05-06 12:12 2.57580 104.17915 19627 ft 415 kts 225°
2026-05-06 12:12 2.55637 104.15838 19422 ft 403 kts 225°
2026-05-06 12:13 2.53744 104.13817 19246 ft 392 kts 225°
2026-05-06 12:13 2.51832 104.11959 19060 ft 375 kts 213°
2026-05-06 12:13 2.49547 104.10818 18822 ft 363 kts 195°
2026-05-06 12:13 2.47085 104.10407 18434 ft 356 kts 180°
2026-05-06 12:14 2.44617 104.10383 18035 ft 354 kts 178°
2026-05-06 12:14 2.42159 104.10406 17582 ft 353 kts 177°
2026-05-06 12:14 2.39712 104.10437 17167 ft 351 kts 177°
2026-05-06 12:14 2.37276 104.10462 16760 ft 349 kts 178°
2026-05-06 12:15 2.34857 104.10479 16361 ft 347 kts 178°
2026-05-06 12:15 2.32449 104.10489 15967 ft 345 kts 178°
2026-05-06 12:15 2.30054 104.10494 15581 ft 343 kts 178°
2026-05-06 12:15 2.27669 104.10497 15186 ft 342 kts 178°
2026-05-06 12:16 2.25295 104.10499 14799 ft 341 kts 178°
2026-05-06 12:16 2.22933 104.10500 14455 ft 338 kts 178°
2026-05-06 12:16 2.20581 104.10500 14091 ft 336 kts 178°
2026-05-06 12:16 2.18278 104.10500 13732 ft 335 kts 178°
2026-05-06 12:17 2.15958 104.10500 13353 ft 333 kts 178°
2026-05-06 12:17 2.13649 104.10500 12959 ft 331 kts 179°
2026-05-06 12:17 2.11358 104.10500 12581 ft 329 kts 179°
2026-05-06 12:17 2.09077 104.10500 12202 ft 327 kts 179°
2026-05-06 12:18 2.06810 104.10500 11871 ft 323 kts 179°
2026-05-06 12:18 2.04596 104.10499 11732 ft 314 kts 179°
2026-05-06 12:18 2.02446 104.10499 11592 ft 305 kts 179°
2026-05-06 12:18 2.00357 104.10499 11459 ft 296 kts 179°
2026-05-06 12:19 1.98324 104.10499 11268 ft 290 kts 179°
2026-05-06 12:19 1.96333 104.10506 11056 ft 285 kts 178°
2026-05-06 12:19 1.94352 104.10516 10772 ft 283 kts 179°
2026-05-06 12:19 1.92368 104.10526 10516 ft 284 kts 179°
2026-05-06 12:20 1.90406 104.10536 10348 ft 280 kts 179°
2026-05-06 12:20 1.88479 104.10545 10181 ft 274 kts 179°
2026-05-06 12:20 1.86604 104.10553 10047 ft 266 kts 179°
2026-05-06 12:20 1.84774 104.10561 9855 ft 261 kts 179°
2026-05-06 12:21 1.82968 104.10570 9587 ft 259 kts 179°
2026-05-06 12:21 1.81164 104.10578 9274 ft 259 kts 179°
2026-05-06 12:21 1.79368 104.10587 8978 ft 258 kts 179°
2026-05-06 12:21 1.77580 104.10595 8694 ft 256 kts 179°
2026-05-06 12:22 1.75803 104.10603 8414 ft 255 kts 179°
2026-05-06 12:22 1.74032 104.10611 8139 ft 254 kts 179°
2026-05-06 12:22 1.72269 104.10619 7851 ft 253 kts 179°
2026-05-06 12:22 1.70514 104.10627 7591 ft 251 kts 179°
2026-05-06 12:23 1.68770 104.10634 7307 ft 250 kts 179°
2026-05-06 12:23 1.67032 104.10642 7027 ft 249 kts 179°
2026-05-06 12:23 1.65341 104.10650 6939 ft 238 kts 179°
2026-05-06 12:23 1.63724 104.10645 6810 ft 226 kts 184°
2026-05-06 12:24 1.62272 104.10085 6305 ft 232 kts 223°
2026-05-06 12:24 1.61109 104.08969 5803 ft 233 kts 213°
2026-05-06 12:24 1.59646 104.08252 5413 ft 236 kts 202°
2026-05-06 12:24 1.58131 104.07605 5076 ft 237 kts 202°
2026-05-06 12:25 1.56611 104.06953 4758 ft 238 kts 202°
2026-05-06 12:25 1.55084 104.06303 4436 ft 239 kts 202°
2026-05-06 12:25 1.53561 104.05657 4209 ft 234 kts 202°
2026-05-06 12:25 1.52105 104.05039 4108 ft 221 kts 202°
2026-05-06 12:26 1.50721 104.04452 3735 ft 214 kts 202°
2026-05-06 12:26 1.49377 104.03882 3258 ft 212 kts 202°
2026-05-06 12:26 1.48042 104.03315 2813 ft 205 kts 202°
2026-05-06 12:26 1.46746 104.02765 2299 ft 201 kts 202°
2026-05-06 12:27 1.45445 104.02213 1674 ft 204 kts 202°
2026-05-06 12:27 1.44173 104.01673 1366 ft 190 kts 202°
2026-05-06 12:27 1.42999 104.01175 1114 ft 176 kts 202°
2026-05-06 12:27 1.41924 104.00719 911 ft 160 kts 202°
2026-05-06 12:28 1.40938 104.00302 712 ft 145 kts 202°
2026-05-06 12:28 1.40004 103.99903 583 ft 147 kts 202°
2026-05-06 12:28 1.39047 103.99503 383 ft 153 kts 202°
2026-05-06 12:28 1.38075 103.99094 145 ft 150 kts 202°
2026-05-06 12:29 1.37135 103.98696 31 ft 140 kts 202°
2026-05-06 12:29 1.36371 103.98374 29 ft 93 kts 202°
2026-05-06 12:29 1.35946 103.98194 29 ft 40 kts 203°
2026-05-06 12:29 1.35781 103.98125 29 ft 24 kts 200°
2026-05-06 12:30 1.35618 103.98114 29 ft 24 kts 174°
2026-05-06 12:30 1.35575 103.98119 29 ft 1 kts 173°
2026-05-06 12:30 1.35549 103.98122 29 ft 9 kts 173°
2026-05-06 12:30 1.35450 103.98134 29 ft 16 kts 173°
2026-05-06 12:31 1.35339 103.98131 29 ft 16 kts 197°
2026-05-06 12:31 1.35235 103.98087 29 ft 16 kts 203°
2026-05-06 12:31 1.35131 103.98044 29 ft 16 kts 202°
2026-05-06 12:31 1.35026 103.98001 29 ft 16 kts 202°
2026-05-06 12:32 1.34922 103.97956 29 ft 16 kts 203°
2026-05-06 12:32 1.34819 103.97912 29 ft 13 kts 203°
2026-05-06 12:32 1.34754 103.97905 28 ft 10 kts 155°
2026-05-06 12:32 1.34719 103.97969 29 ft 11 kts 114°
2026-05-06 12:33 1.34684 103.98056 29 ft 16 kts 112°
2026-05-06 12:33 1.34628 103.98186 29 ft 25 kts 112°
2026-05-06 12:33 1.34554 103.98363 29 ft 29 kts 113°
2026-05-06 12:33 1.34488 103.98517 29 ft 4 kts 113°
2026-05-06 12:34 1.34453 103.98601 29 ft 13 kts 113°
2026-05-06 12:34 1.34401 103.98633 29 ft 10 kts 185°
2026-05-06 12:34 1.34332 103.98641 29 ft 11 kts 143°
2026-05-06 12:35 1.34292 103.98699 29 ft 6 kts 163°
2026-05-06 12:35 1.34264 103.98689 29 ft 5 kts 206°
2026-05-06 12:35 1.34247 103.98682 29 ft 2 kts 204°
2026-05-06 12:35 1.34237 103.98677 29 ft 0 kts 203°